#timestamp,LO_Frequency,Hit,StdDev 
1648767615.2,286046999.9,N
1648767635.0,286047001.1,N
1648767635.9,286047001.1,N
1648767655.8,286046999.4,N
1648767675.6,286046999.6,N
1648767695.4,286046998.3,N
1648767715.3,286046998.2,N
1648767735.1,286046996.9,N
1648767755.9,286046997.4,N
1648767775.7,286046999.3,N
1648767795.5,286047000.5,N
1648767815.4,286047000.0,N
1648767835.2,286047001.1,N
1648767855.0,286047000.9,N
1648767855.9,286047000.9,N
1648767875.8,286047001.1,N
1648767895.6,286047000.2,N
1648767915.5,286047001.0,N
1648767935.3,286046999.9,N
1648767955.1,286046998.5,N
1648767975.9,286047000.3,N
1648767995.7,286047002.1,N
1648768015.5,286047001.5,N
1648768035.4,286046999.8,N
1648768055.2,286047001.5,N
1648768075.1,286047001.2,N
1648768076.0,286047001.2,N
1648768095.8,286047000.5,N
1648768115.6,286047001.2,N
1648768135.5,286047000.5,N
1648768155.3,286047000.0,N
1648768175.2,286047002.8,N
1648768195.9,286047002.7,N
1648768215.7,286047001.4,N
1648768235.6,286047001.8,N
1648768255.4,286047004.4,Y
1648768275.2,286047001.5,P
1648768295.1,286047004.4,P
1648768296.0,286047004.4,N
1648768315.8,286047001.4,N
1648768335.7,286047002.5,N
1648768355.5,286047002.3,N
1648768375.3,286047000.3,N
1648768395.2,286047002.4,N
1648768415.0,286047002.8,N
1648768415.9,286047002.8,N
1648768435.7,286047001.0,N
1648768455.6,286047002.0,N
1648768475.4,286047001.9,N
1648768495.3,286047001.6,N
1648768515.1,286047002.4,N
1648768516.0,286047002.4,N
1648768535.8,286047002.8,N
1648768555.7,286046998.2,N
1648768575.5,286046998.5,N
1648768595.4,286046998.5,N
1648768615.2,286047000.5,N
1648768635.0,286047000.6,N
1648768635.9,286047000.6,N
1648768655.8,286047000.0,N
1648768675.6,286047000.9,N
1648768695.4,286047000.4,N
1648768715.3,286046999.7,N
1648768735.1,286047002.7,N
1648768755.9,286047002.5,N
1648768775.7,286047001.3,N
1648768795.5,286047003.7,N
1648768815.4,286047003.9,N
1648768835.2,286047001.8,N
1648768855.0,286047003.1,N
1648768855.9,286047003.1,N
1648768875.8,286047004.1,N
1648768895.6,286047002.2,N
1648768915.5,286047002.4,N
1648768935.3,286047001.3,N
1648768955.1,286047001.9,N
1648768975.9,286047002.1,N
1648768995.7,286046999.7,N
1648769015.5,286047001.6,N
1648769035.4,286047002.2,N
1648769055.2,286047002.6,N
1648769075.1,286047001.9,N
1648769076.0,286047001.9,N
1648769095.8,286047003.8,N
1648769115.6,286047004.1,N
1648769135.5,286047004.2,N
1648769155.3,286047001.3,N
1648769175.1,286047004.3,Y
1648769195.9,286047001.0,P
1648769215.7,286046998.1,P
1648769235.6,286047000.8,N
1648769255.4,286046998.6,N
1648769275.2,286047000.6,N
1648769295.1,286047000.4,N
1648769296.0,286047000.4,N
1648769315.8,286046998.9,N
1648769335.6,286046998.6,N
1648769355.5,286046998.2,N
1648769375.3,286046998.3,N
1648769395.2,286046998.9,N
1648769415.9,286046997.2,N
1648769435.7,286046998.2,N
1648769455.6,286046998.9,N
1648769475.4,286046999.9,N
1648769495.2,286047001.2,N
1648769515.1,286046998.6,N
1648769516.0,286046998.6,N
1648769535.8,286047000.0,N
1648769555.7,286046998.4,N
1648769575.5,286046998.5,N
1648769595.3,286047000.7,N
1648769615.2,286047000.2,N
1648769635.0,286047000.0,N
1648769635.9,286047000.0,N
1648769655.7,286046999.0,N
1648769675.6,286046998.9,N
1648769695.4,286046996.9,N
1648769715.3,286046996.5,N
1648769735.1,286046998.3,N
1648769736.0,286046998.3,N
1648769755.8,286046996.9,N
1648769775.7,286046997.1,N
1648769795.5,286046996.5,N
1648769815.3,286046998.1,N
1648769835.2,286047000.2,N
1648769855.0,286046998.8,N
1648769855.9,286046998.8,N
1648769875.8,286047001.1,N
1648769895.6,286046998.4,N
1648769915.4,286046998.9,N
1648769935.3,286046999.1,N
1648769955.1,286046998.4,N
1648769975.8,286046999.2,N
1648769995.7,286046999.3,N
1648770015.5,286046999.2,N
1648770035.4,286046998.4,N
1648770055.2,286047000.2,N
1648770075.0,286047000.2,N
1648770075.9,286047000.2,N
1648770095.8,286046998.3,N
1648770115.6,286046998.5,N
1648770135.5,286047002.4,N
1648770155.3,286046998.1,N
1648770175.1,286046998.8,N
1648770195.9,286047000.7,N
1648770215.7,286046998.1,N
1648770235.5,286046999.0,N
1648770255.4,286046998.2,N
1648770275.2,286046998.4,N
1648770295.1,286047001.0,N
1648770296.0,286047001.0,N
1648770315.8,286046998.8,N
1648770335.6,286046998.9,N
1648770355.5,286047001.2,N
1648770375.3,286047000.5,N
1648770395.1,286047000.2,N
1648770415.9,286047001.0,N
1648770435.7,286047001.3,N
1648770455.6,286047002.2,N
1648770475.4,286046999.9,N
1648770495.2,286046998.6,N
1648770515.1,286047000.4,N
1648770516.0,286047000.4,N
1648770535.8,286046999.4,N
1648770555.7,286046998.7,N
1648770575.5,286046998.6,N
1648770595.3,286046996.5,N
1648770615.2,286046998.7,N
1648770635.0,286046998.7,N
1648770635.9,286046998.7,N
1648770655.7,286046998.4,N
1648770675.6,286046998.5,N
1648770695.4,286047000.0,N
1648770715.3,286046998.3,N
1648770735.1,286047002.7,N
1648770736.0,286047002.7,N
1648770755.8,286047001.1,N
1648770775.7,286046999.8,N
1648770795.5,286047000.7,N
1648770815.3,286047000.9,N
1648770835.2,286046999.8,N
1648770855.0,286047000.6,N
1648770855.9,286047000.6,N
1648770875.8,286047000.4,N
1648770895.6,286047000.6,N
1648770915.4,286047000.9,N
1648770935.3,286046999.8,N
1648770955.1,286046998.7,N
1648770975.9,286046998.1,N
1648770995.7,286047000.5,N
1648771015.5,286046999.1,N
1648771035.4,286046999.5,N
1648771055.2,286047001.1,N
1648771075.0,286046999.7,N
1648771075.9,286046999.7,N
1648771095.8,286047000.0,N
1648771115.6,286047000.3,N
1648771135.5,286046998.1,N
1648771155.3,286047000.7,N
1648771175.1,286047001.1,N
1648771195.9,286047002.5,N
